Location: Eppenbrunn
(49.1158°N, 7.5601°E)
Time: 13:50:39
(UTC+00:00)

BREEZE M DEB (TANK) - Pass Details

Date: 09 April 2020
Orbit: 313 x 13666 km, 49.6° (Epoch: 23 May)

Event Time Altitude Azimuth Distance (km) Brightness Sun altitude
Rises 20:40:46 0° 255° (WSW) 5,470 8.3 -21.8°
Reaches altitude 10° 20:45:49 10° 256° (WSW) 3,151 7.0 -22.4°
Enters shadow 20:51:30 72° 241° (WSW) 579 2.8 -23.1°
